Москва (Восток)

Россия / Московская область     55°45′00″N   37°49′58″E
В апреле 2022 года жителям России запретили посещать сайт meteo.paraplan.net по решению Генеральной прокуратуры. Аудитория сайта уменьшилась в 10 раз. Владельцы сайта не видят смысла в поддержке погодного сервера в таких условиях. Сайт будет закрыт в октябре.
темп.,
°C
ветер,
м/с
пор.,
м/с
влажн.,
%
обл.,
%
осадки,
мм/ч
давл.,
гПа
погр.,
м
4 октября, вт
вт400:00+10ююв8167469 0.1 10031453
03:00+11ююв91671100 0.1 10041454
06:00+10ююв81579100 0.0 10051495
09:00+10ююв81574100 0.0 10051192
12:00+12ююв91667100 0.1 10061853
15:00+9ю61475100 0.5 10091345
18:00+9ююв51074100 0.0 1009816
21:00+8ю61180100 0.4 10091153
5 октября, ср
ср500:00+7ю598096 0.3 10101009
03:00+7ю4880100 0.6 1010898
06:00+7ю3586100 0.6 10101031
09:00+7ююз2487100 2.4 1011874
12:00+7з2385100 0.8 1012697
15:00+7з4581100 1.1 1014734
18:00+6з4676100 0.0 1015725
21:00+6зсз4685100 0.2 1015875
6 октября, чт
чт600:00+6з3784100 0.1 1016490
03:00+6з368687 0.1 1017341
06:00+5з25895 0.0 1017220
09:00+6з24795 0.0 1018284
12:00+10зюз24624 0.0 1018697
15:00+11зюз346975 0.0 1017821
18:00+10ююз368348 0.0 1017392
21:00+10ююз4109325 0.0 1016373
7 октября, пт
пт700:00+9юз41295100 0.0 1015403
03:00+9зюз4139552 0.0 1015453
06:00+11зсз5118754 0.0 1016722
09:00+10зсз5128066 0.0 1019757
12:00+11зсз61067100 0.0 10211208
15:00+12з5116743 0.0 10221307
18:00+11з410720 0.0 1023713
21:00+9з411780 0.0 1024456
8 октября, сб
сб800:00+8зюз39851 0.0 1025272
03:00+7зюз38900 0.0 1024214
06:00+7юз38915 0.0 1025227
09:00+9юз49835 0.0 1024339
12:00+13юз476612 0.0 1023714
15:00+15юз575650 0.0 10211017
18:00+12ююз4107038 0.0 1020635
21:00+10ююз51379100 0.0 1019606